Location: Observatoire
(46.1952°N, 5.3391°E)
Time: 22:46:13
(UTC+01:00)

Tiros 1 despin weight - Pass Details

Date: 19 February 2026
Orbit: 556 x 593 km, 48.2° (Epoch: 9 March)

Event Time Altitude Azimuth Distance (km) Brightness Sun altitude
Rises 19:50:08 0° 288° (WNW) 2,734 ? -17.9°
Reaches altitude 10° 19:52:24 10° 285° (WNW) 1,837 ? -18.3°
Maximum altitude 19:56:33 65° 204° (SSW) 612 ? -19.0°
Enters shadow 19:57:53 40° 138° (SE) 826 ? -19.3°
Drops below altitude 10° 20:00:43 10° 122° (ESE) 1,839 - -19.7°
Sets 20:02:58 0° 120° (ESE) 2,737 - -20.1°
